EHI
8 13 18 19 18 18 16 10 5 3 3 3 3 4 5 5 4 3 3 2 1 0 0 0 0 0 0 0 0 0 0 0 0 0 0 0 0 0 0 0 0 0 0
11 13 18 19 18 17 15 11 6 4 3 3 3 3 4 4 3 3 2 1 0 0 0 0 0 0 0 0 0 0 0 0 0 0 0 0 0 0 0 0 0 0 0
12 11 14 18 20 18 15 12 9 5 3 3 3 3 3 3 3 3 1 1 0 0 0 0 0 0 0 0 0 0 0 0 0 0 0 0 0 0 0 0 0 0 0
10 8 10 16 21 19 16 13 11 7 4 3 3 3 1 1 2 2 1 1 1 0 0 0 0 0 0 0 0 0 0 0 0 0 0 0 0 0 0 0 0 0 0
8 7 9 15 19 18 16 14 12 10 6 4 4 4 3 3 3 1 1 2 2 1 0 0 0 0 0 0 0 0 0 0 0 0 0 0 0 0 0 0 0 0 0
7 7 10 13 15 15 15 15 14 12 8 7 6 6 6 6 4 2 2 3 3 1 0 0 0 0 0 0 0 0 0 0 0 0 0 0 0 0 0 0 0 0 0
6 7 9 12 13 13 13 14 14 12 9 9 8 7 7 8 6 4 3 4 3 2 2 1 0 0 0 0 0 0 0 0 0 0 0 0 0 0 0 0 0 0 0
5 7 8 10 11 11 10 10 11 10 9 9 8 6 7 9 7 4 3 3 3 3 3 2 1 0 0 0 0 0 0 0 0 0 0 0 0 0 0 0 0 0 0
5 7 8 8 8 9 8 8 8 8 7 8 7 7 8 9 7 4 2 3 3 3 3 2 1 0 0 0 0 0 0 0 0 0 0 0 0 0 0 0 0 0 0
5 6 7 7 7 7 7 7 6 5 5 6 6 6 7 8 6 4 2 2 4 3 1 1 0 0 0 0 0 0 0 0 0 0 0 0 0 0 0 0 0 0 0
6 6 6 6 6 6 6 6 6 4 3 4 5 5 5 5 4 3 1 1 3 2 0 0 0 0 0 0 0 0 0 0 0 0 0 0 0 0 0 0 0 0 0
5 5 5 5 5 6 6 6 5 4 3 4 5 4 3 2 2 2 1 0 1 0 0 0 0 0 0 0 0 0 0 0 0 0 0 0 0 0 0 0 0 0 0
3 4 5 4 4 5 6 6 5 4 3 4 5 4 2 1 1 1 0 0 0 0 0 0 0 0 0 0 0 0 0 0 0 0 0 0 0 0 0 0 0 0 0
1 2 3 3 3 5 6 6 6 5 4 3 4 3 1 0 0 0 0 0 0 0 0 0 0 0 0 0 0 0 0 0 0 0 0 0 0 0 0 0 0 0 0
1 2 4 3 3 5 7 6 6 6 4 3 3 2 1 0 0 0 0 0 0 0 0 0 0 0 0 0 0 0 0 0 0 0 0 0 0 0 0 0 0 0 0
2 3 5 5 5 6 7 7 6 6 5 4 4 2 1 0 0 0 0 0 0 0 0 0 1 1 1 0 0 0 0 0 0 0 0 0 0 0 0 0 0 0 0
2 3 5 6 6 6 7 7 6 6 6 6 5 2 0 0 0 0 0 0 0 0 0 0 1 1 1 0 0 0 0 0 0 0 0 0 0 0 0 0 0 0 0
1 2 4 5 5 5 6 7 6 6 6 6 5 3 1 0 0 0 0 0 0 0 0 0 0 1 1 0 0 0 0 0 0 0 0 0 0 0 0 0 0 0 0
0 1 2 4 4 5 6 6 6 5 4 4 4 3 1 0 0 0 0 0 0 0 0 0 0 0 0 0 0 0 0 0 0 0 0 0 0 0 0 0 0 0 0
0 0 1 2 3 5 6 6 5 4 3 3 3 3 1 0 0 0 0 0 0 0 0 0 0 0 0 0 0 0 0 0 0 0 0 0 0 0 0 0 0 0 0
0 0 0 1 1 4 6 6 4 3 3 3 3 3 2 1 0 0 0 0 0 0 0 0 0 0 0 0 0 0 0 0 0 0 0 0 0 0 0 0 0 0 0
0 0 0 0 0 1 3 4 4 3 3 3 3 3 3 2 1 0 0 0 0 0 0 0 0 0 0 0 0 0 0 0 0 0 0 0 0 0 0 0 0 0 0
0 0 0 0 0 0 1 2 3 3 3 3 3 3 3 3 2 1 0 0 0 0 0 0 0 0 0 0 0 0 0 0 0 0 0 0 0 0 0 0 0 0 0
0 0 0 0 0 0 1 1 2 2 2 3 3 3 3 3 3 2 1 0 0 0 0 0 0 0 0 0 0 0 0 0 0 0 0 0 0 0 0 0 0 0 0
0 0 0 0 0 0 1 2 1 1 1 1 2 3 3 3 3 3 2 1 0 0 0 0 0 0 0 0 0 0 0 0 0 0 0 0 0 0 0 0 0 0 0
0 0 0 0 0 0 1 2 1 0 0 0 1 2 3 3 3 3 3 2 1 0 0 0 0 0 0 0 0 0 0 0 0 0 0 0 0 0 0 0 0 0 0
Wind_Speed
5 7 7 8 8 8 8 9 9 9 9 9 9 9 10 10 9 9 10 9 9 10 10 11 11 12 12 12 12 12 12 12 12 11 11 12 12 13 12 12 11 8 13
6 8 8 8 8 8 8 8 8 9 9 9 9 9 9 9 9 9 9 9 9 10 10 10 11 11 11 11 11 11 11 10 10 10 10 10 11 12 12 11 11 8 12
7 8 7 8 8 8 8 8 8 8 8 8 8 8 8 8 9 8 8 9 9 10 10 10 10 11 11 11 10 10 9 9 8 7 7 5 7 11 11 11 11 11 11
7 7 7 8 8 8 8 8 8 8 8 7 8 7 8 8 8 8 8 8 9 9 9 10 10 10 11 10 9 9 8 7 6 5 4 5 5 9 10 10 10 10 10
6 7 7 8 8 8 8 7 8 8 8 7 7 7 7 7 7 7 7 8 8 8 8 9 10 10 9 9 9 7 6 6 6 5 4 5 4 8 9 9 9 9 9
6 6 7 8 8 7 7 7 7 7 7 7 7 6 7 6 6 6 7 7 7 7 7 8 9 9 9 8 7 6 5 5 4 3 4 4 4 8 9 9 8 8 7
6 6 6 8 8 7 7 6 7 6 6 7 6 6 6 6 6 6 6 6 7 7 6 7 8 8 8 7 6 5 5 5 3 3 4 4 4 7 8 8 7 7 6
6 6 6 7 7 7 7 6 6 5 6 6 6 6 6 6 6 6 6 6 6 6 6 7 7 7 7 6 5 4 5 5 3 4 4 4 6 6 7 7 6 6 7
6 6 5 4 5 6 6 5 5 5 6 5 5 5 5 5 6 5 6 6 6 6 6 6 6 6 6 5 4 3 4 4 3 2 4 3 5 6 6 6 6 6 6
5 5 4 3 4 3 3 4 4 5 5 5 5 5 5 4 4 5 5 5 5 5 6 6 6 5 5 4 4 3 3 3 2 3 2 3 6 5 5 5 5 5 5
4 4 4 3 3 2 2 3 3 4 4 5 4 5 4 2 2 3 4 6 6 6 5 5 5 5 4 3 2 2 2 1 2 2 2 4 5 5 5 4 4 4 4
3 3 3 3 3 2 2 2 1 2 2 2 2 3 2 2 2 4 5 6 5 5 4 4 4 4 2 1 0 1 1 1 2 2 2 5 5 5 4 3 3 3 3
3 3 3 2 3 2 1 1 1 1 1 1 2 2 2 2 2 3 2 3 3 3 2 2 2 1 1 1 0 0 1 1 1 2 2 4 4 3 3 3 3 2 3
3 3 3 3 2 2 2 1 1 1 1 1 1 2 2 2 2 2 1 1 1 1 1 1 1 1 1 1 0 0 1 1 1 1 1 3 3 2 2 2 2 3 3
3 2 3 3 2 2 2 1 2 1 1 1 1 1 2 2 2 1 1 1 1 1 1 1 1 1 1 0 0 1 1 1 1 1 1 3 3 2 1 2 2 2 3
3 3 3 3 2 2 1 1 1 1 1 1 1 2 1 1 1 1 1 1 1 1 1 1 1 1 0 0 0 1 1 1 1 1 1 1 2 1 1 2 2 3 3
3 2 2 3 3 2 2 1 1 1 2 1 1 2 2 1 1 1 1 1 1 0 1 1 1 1 0 0 0 0 0 0 1 1 1 1 1 1 1 2 2 3 3
2 2 2 2 3 2 2 1 1 1 1 1 1 2 2 2 2 1 1 1 0 0 0 1 1 0 0 0 0 0 0 0 0 0 0 0 1 0 1 2 2 3 4
3 2 2 2 2 2 2 1 1 1 1 1 1 2 2 2 2 1 1 0 0 0 0 0 0 0 0 0 1 0 0 0 1 0 1 0 0 1 1 1 2 3 4
3 3 2 2 2 2 2 2 1 1 0 0 1 1 2 2 2 1 1 1 1 1 0 0 0 0 0 0 1 1 1 1 1 1 2 1 1 1 1 1 1 2 3
3 2 2 2 2 2 2 2 2 2 1 0 0 1 2 2 2 1 1 1 1 1 1 0 0 0 0 0 1 1 2 2 1 1 1 1 1 1 1 1 1 1 2
3 2 2 2 2 2 2 2 2 1 1 1 1 1 1 1 2 1 2 2 1 1 1 0 0 1 0 1 1 0 1 2 2 2 1 1 1 1 1 1 1 1 1
3 3 2 2 2 2 2 2 1 1 0 1 1 1 1 1 2 1 1 1 1 1 1 1 1 2 1 1 0 1 1 2 2 2 1 1 1 1 1 1 2 1 1
2 2 2 2 2 2 2 2 2 2 2 2 2 1 2 1 1 1 1 1 1 1 2 2 1 1 2 1 1 1 0 0 1 2 2 1 1 2 2 2 1 1 1
2 2 2 2 2 2 2 3 3 2 1 1 1 2 2 1 1 1 1 1 1 1 1 1 1 1 1 2 1 0 1 1 1 1 2 2 2 2 1 2 1 1 1
1 2 2 2 1 1 2 2 3 2 2 2 1 1 1 1 1 1 1 1 1 1 1 1 1 1 1 1 1 1 1 1 1 1 2 2 3 3 2 2 1 1 1
Wind_Direction
99 109 111 105 100 99 98 96 92 88 86 85 85 82 79 82 85 83 81 83 84 82 83 84 83 82 80 78 76 74 72 70 72 74 74 77 78 78 75 73 70 67 73
107 110 109 103 100 98 99 98 96 91 89 87 86 83 81 81 83 83 82 82 84 84 84 83 83 83 82 79 75 73 73 73 76 76 74 75 77 76 72 68 69 70 72
102 107 109 100 100 98 98 98 96 94 92 90 88 84 85 84 83 84 84 84 84 84 82 82 83 84 83 81 78 74 71 74 75 75 74 76 77 76 74 71 72 69 69
99 105 107 102 100 98 100 101 101 98 96 95 93 91 90 89 87 88 88 85 85 84 82 83 83 83 83 80 78 74 68 63 57 62 72 72 76 79 75 72 71 69 66
94 99 100 106 106 103 101 103 101 98 97 96 95 94 93 92 90 89 90 87 85 85 83 84 84 81 82 81 77 72 62 49 32 49 66 66 67 81 77 72 68 68 65
97 96 100 105 108 106 101 102 100 99 98 97 95 94 94 92 93 91 91 91 90 88 87 87 86 84 80 80 78 71 54 36 30 50 65 70 71 78 77 73 68 66 65
93 98 99 95 101 98 98 94 98 98 100 101 96 94 91 91 92 88 91 94 95 94 93 93 89 86 81 77 76 66 41 25 41 58 61 63 75 82 81 77 71 64 60
93 98 104 93 91 92 93 94 91 96 97 99 98 94 90 86 87 90 91 94 94 96 97 97 94 89 84 79 74 55 29 24 50 68 69 63 81 85 87 79 70 62 57
94 100 108 107 99 90 86 91 96 98 97 95 95 94 88 87 87 90 93 88 93 99 98 96 95 92 86 80 74 51 30 26 36 59 74 67 80 83 85 80 69 59 53
97 102 107 103 98 96 96 86 91 104 103 101 97 90 86 89 88 91 91 88 92 98 103 102 98 93 87 78 64 34 17 15 38 58 58 75 84 83 78 76 66 59 51
94 96 104 102 94 92 108 104 95 94 100 106 101 97 98 94 89 92 97 96 96 97 100 106 107 100 91 81 57 16 360 5 57 63 52 78 87 85 78 72 62 56 46
112 100 97 105 102 85 81 101 104 99 105 111 109 114 107 90 83 82 91 98 96 96 96 101 107 108 100 115 309 0 338 33 64 69 59 77 86 83 78 68 55 46 38
120 104 94 95 101 96 75 88 86 78 82 82 94 97 90 84 85 80 85 84 90 92 86 100 122 135 124 119 121 81 9 50 74 71 60 71 77 79 74 63 46 29 18
117 106 99 91 84 90 88 87 95 85 72 58 80 95 91 91 88 92 90 84 78 79 82 72 85 84 90 108 132 105 70 65 78 86 82 76 68 60 51 37 21 6 358
123 124 120 116 106 96 95 103 99 100 103 90 67 81 87 98 101 95 91 84 67 73 102 87 71 63 64 105 89 83 71 77 86 82 85 80 70 37 12 359 345 337 341
140 141 133 128 129 117 113 116 115 125 126 132 121 100 82 102 109 108 103 93 69 63 93 104 87 84 64 57 70 94 104 96 101 107 113 85 70 39 350 330 328 332 335
150 141 139 139 132 130 129 128 116 130 142 155 138 123 111 98 106 107 113 104 92 80 83 78 59 70 70 42 95 161 130 128 120 93 114 140 124 15 337 318 311 314 314
143 137 140 132 131 138 138 134 121 130 142 154 133 125 122 112 110 106 107 109 114 97 91 98 97 64 56 26 321 311 59 66 70 106 76 122 164 178 302 309 306 308 312
149 147 147 135 139 143 144 138 132 128 147 152 125 126 144 144 127 125 130 115 129 96 55 56 93 136 131 301 287 296 251 166 230 231 227 225 243 194 203 279 289 296 303
148 152 155 140 141 142 141 138 134 135 182 130 128 143 147 147 136 134 138 146 148 128 93 108 176 228 180 234 320 329 296 255 244 224 229 220 234 239 233 228 239 271 285
140 143 158 156 157 154 163 167 177 196 184 161 133 136 144 144 140 144 153 166 157 154 183 195 229 187 312 75 45 341 307 265 249 250 235 227 228 233 235 229 220 234 259
158 166 179 176 171 170 177 182 187 186 177 163 156 135 145 147 148 169 168 175 178 174 180 204 214 168 298 66 117 254 301 310 292 257 240 252 253 260 244 271 260 259 263
166 181 194 192 181 172 161 150 147 140 137 142 171 156 148 155 157 161 179 182 184 178 191 207 212 177 181 264 145 164 187 246 308 305 277 257 255 267 259 259 264 270 295
186 183 189 188 183 166 158 163 166 181 193 197 184 168 161 156 146 138 157 172 187 185 190 213 221 193 160 190 309 323 262 185 208 295 299 281 274 273 268 285 284 272 264
164 170 178 173 176 168 159 172 178 189 193 156 144 143 142 139 139 134 142 154 180 199 192 186 199 189 179 180 187 236 307 323 268 220 271 291 299 281 279 279 267 271 288
109 134 147 152 159 153 153 175 180 178 178 170 165 160 156 150 140 141 147 147 166 167 184 186 190 185 197 185 188 191 202 222 252 241 256 276 283 282 281 277 266 266 281